Weather Roundup
Issued by NWS Chicago, IL

Home | Current Version | Previous Version | Text Only | Print | Product List | Glossary Off
Versions: 1 2 3 4 5 6 7 8 9 10 11 12 13 14 15 16 17 18 19 20 21 22 23 24 25 26 27 28 29 30 31 32 33 34 35 36 37 38 39 40 41 42 43 44 45 46 47 48 49 50

000
NZUS59 KLOT 220803
HRRLOT

CHICAGO AREA WEATHER ROUNDUP
NATIONAL WEATHER SERVICE CHICAGO/ROMEOVILLE IL
200 AM CST THU FEB 22 2018

NOTE: "FAIR" INDICATES FEW OR NO CLOUDS BELOW 12,000 FEET WITH NO
SIGNIFICANT WEATHER AND/OR OBSTRUCTIONS TO VISIBILITY.

* THESE STATIONS ARE NOT UNDER NWS QUALITY CONTROL. THEY ALSO MAY NOT
  REPORT WEATHER SUCH AS PRECIPITATION OR FOG.

ILZ005-006-012>014-019>023-220900-
NORTHEAST ILLINOIS

CITY           SKY/WX    TMP DP  RH WIND       PRES   REMARKS
OHARE          CLOUDY    31  22  69 NE9       30.58R WCI  23
MIDWAY         CLOUDY    32  26  78 NE13      30.58R WCI  22
AURORA           N/A     29  22  75 NE13      30.56R WCI  19
LANSING*         N/A     31  28  89 NE13      30.55F WCI  22
JOLIET*          N/A     32  26  80 NE10      30.55S WCI  23
WAUKEGAN         N/A     29  22  75 NE9       30.58F WCI  20
DUPAGE AIRPORT   N/A     28  23  81 NE9       30.56R WCI  19
WHEELING         N/A     31  23  72 NE9       30.59F WCI  23
KANKAKEE*      CLOUDY    32  28  86 NE15      30.51F WCI  21
MORRIS*          N/A     30  25  81 NE7       30.54F WCI  23
LEWIS AIRPORT*   N/A     30  26  83 NE15      30.55R WCI  19
NORTHERLY ISL    N/A     31  26  82 NE16        N/A  WCI  20
$$

WIZ051-052-058>065-066-070>072-220900-
SOUTHEAST WISCONSIN

CITY           SKY/WX    TMP DP  RH WIND       PRES   REMARKS
MILWAUKEE      CLOUDY    29  20  69 NE9       30.61F WCI  20
KENOSHA*         N/A     29  21  72 NE9       30.59F WCI  20
RACINE*          N/A     28  21  75 NE10      30.62F WCI  19
BURLINGTON       N/A     25  17  72 N6        30.60S WCI  18
WAUKESHA         N/A     21  12  68 N5        30.62S WCI  15
WEST BEND        N/A     23  16  74 N3        30.62S
$$

INZ001>003-010>013-019-020-220900-
NORTHWEST INDIANA

CITY           SKY/WX    TMP DP  RH WIND       PRES   REMARKS
GARY*            N/A     33  28  81 NE16      30.57F WCI  22
MICHIGAN CITY* NOT AVBL
RENSSELAER*    NOT AVBL
VALPARAISO     CLOUDY    32  27  81 NE9       30.53F WCI  24
$$

LMZ740>746-220900-
SOUTHERN LAKE MICHIGAN

STATION/POSITION TIME  SKY/WX   TEMP WIND        PRES    VSBY
                                AIR  DIR/SP/G
                 (UTC)          (F)  (DEG/KT/KT) (MB)    (MI)
HARRISON CRIB    0740            32   40/ 18/ 19   N/A
BURNHAM HARBOR   0800            31   30/ 12/ 17   N/A
CALUMET HARBOR   0730            31   40/ 12/ 19 1034.5R
BURNS HARBOR     0740            31   50/ 15/ 18 1034.5F
MICHIGAN CITY    0740            30   30/ 18/ 18   N/A
$$

ABBREVIATIONS USED IN REMARKS
   TC - TEMPERATURE IN CELSIUS
  WCI - WIND CHILL INDEX
   HX - HEAT INDEX
  VSB - VISIBILITY
$$



USA.gov is the U.S. government's official web portal to all federal, state and local government web resources and services.